2023/02/17 00:00:00,27.6,-1.9
2023/02/17 00:10:00,27.5,-1.9
2023/02/17 00:20:00,27.5,-2.0
2023/02/17 00:30:00,27.5,-1.7
2023/02/17 00:40:00,27.5,-2.0
2023/02/17 00:50:00,27.5,-2.1
2023/02/17 01:00:00,27.5,-2.3
2023/02/17 01:10:00,27.5,-2.0
2023/02/17 01:20:00,27.5,-1.9
2023/02/17 01:30:00,27.5,-1.5
2023/02/17 01:40:00,27.5,-1.9
2023/02/17 01:50:00,27.4,-1.5
2023/02/17 02:00:00,27.4,-1.6
2023/02/17 02:10:00,27.4,-1.7
2023/02/17 02:20:00,27.4,-1.7
2023/02/17 02:30:00,27.4,-1.3
2023/02/17 02:40:00,27.4,-1.5
2023/02/17 02:50:00,27.4,-1.7
2023/02/17 03:00:00,27.4,-1.4
2023/02/17 03:10:00,27.4,-1.5
2023/02/17 03:20:00,27.4,-1.4
2023/02/17 03:30:00,27.4,-1.3
2023/02/17 03:40:00,27.4,-1.4
2023/02/17 03:50:00,27.4,-1.2
2023/02/17 04:00:00,27.4,-1.3
2023/02/17 04:10:00,27.4,-1.1
2023/02/17 04:20:00,27.3,-1.0
2023/02/17 04:30:00,27.3,-0.8
2023/02/17 04:40:00,27.3,-0.9
2023/02/17 04:50:00,27.2,-0.9
2023/02/17 05:00:00,27.2,-0.8
2023/02/17 05:10:00,27.2,-0.7
2023/02/17 05:20:00,27.2,-0.7
2023/02/17 05:30:00,27.2,-0.1
2023/02/17 05:40:00,27.2,-0.2
2023/02/17 05:50:00,27.1,-0.2
2023/02/17 06:00:00,27.1, 0.2
2023/02/17 06:10:00,27.0, 0.4
2023/02/17 06:20:00,27.0, 0.4
2023/02/17 06:30:00,27.0, 0.6
2023/02/17 06:40:00,27.0, 0.8
2023/02/17 06:50:00,26.9, 0.6
2023/02/17 07:00:00,26.9, 0.8
2023/02/17 07:10:00,26.9, 1.4
2023/02/17 07:20:00,26.9, 1.0
2023/02/17 07:30:00,26.9, 1.4
2023/02/17 07:40:00,26.8, 1.4
2023/02/17 07:50:00,26.8, 1.2
2023/02/17 08:00:00,26.9, 1.5
2023/02/17 08:10:00,26.9, 2.0
2023/02/17 08:20:00,26.9, 2.0
2023/02/17 08:30:00,26.8, 3.0
2023/02/17 08:40:00,26.6, 2.6
2023/02/17 08:50:00,26.6, 2.5
2023/02/17 09:00:00,26.5, 2.4
2023/02/17 09:10:00,26.5, 2.5
2023/02/17 09:20:00,26.4, 3.0
2023/02/17 09:30:00,26.1, 3.7
2023/02/17 09:40:00,26.1, 3.9
2023/02/17 09:50:00,25.9, 4.0
2023/02/17 10:00:00,25.8, 5.1
2023/02/17 10:10:00,25.8, 5.2
2023/02/17 10:20:00,25.7, 5.3
2023/02/17 10:30:00,25.6, 5.2
2023/02/17 10:40:00,25.4, 6.1
2023/02/17 10:50:00,25.2, 6.0
2023/02/17 11:00:00,24.9, 5.4
2023/02/17 11:10:00,24.8, 5.4
2023/02/17 11:20:00,24.7, 4.6
2023/02/17 11:30:00,24.5, 5.9
2023/02/17 11:40:00,24.4, 6.4
2023/02/17 11:50:00,24.3, 6.7
2023/02/17 12:00:00,24.2, 6.2
2023/02/17 12:10:00,24.1, 6.2
2023/02/17 12:20:00,23.8, 6.0
2023/02/17 12:30:00,23.6, 5.9
2023/02/17 12:40:00,23.5, 6.9
2023/02/17 12:50:00,23.4, 6.6
2023/02/17 13:00:00,23.3, 6.3
2023/02/17 13:10:00,23.1, 6.8
2023/02/17 13:20:00,23.0, 7.0
2023/02/17 13:30:00,23.0, 6.5
2023/02/17 13:40:00,22.9, 6.5
2023/02/17 13:50:00,22.9, 6.2
2023/02/17 14:00:00,22.8, 6.1
2023/02/17 14:10:00,22.7, 5.7
2023/02/17 14:20:00,22.6, 4.9
2023/02/17 14:30:00,22.4, 5.4
2023/02/17 14:40:00,22.3, 5.7
2023/02/17 14:50:00,22.3, 5.6
2023/02/17 15:00:00,22.4, 5.3
2023/02/17 15:10:00,22.4, 5.2
2023/02/17 15:20:00,22.3, 4.9
2023/02/17 15:30:00,22.3, 5.0
2023/02/17 15:40:00,22.2, 5.5
2023/02/17 15:50:00,22.1, 5.2
2023/02/17 16:00:00,22.0, 4.6
2023/02/17 16:10:00,22.0, 4.4
2023/02/17 16:20:00,21.8, 4.2
2023/02/17 16:30:00,21.9, 4.5
2023/02/17 16:40:00,21.9, 4.3
2023/02/17 16:50:00,21.8, 4.1
2023/02/17 17:00:00,21.7, 3.9
2023/02/17 17:10:00,21.6, 3.9
2023/02/17 17:20:00,21.5, 3.6
2023/02/17 17:30:00,21.4, 3.9
2023/02/17 17:40:00,21.3, 3.7
2023/02/17 17:50:00,21.2, 4.0
2023/02/17 18:00:00,21.1, 3.7
2023/02/17 18:10:00,21.1, 3.7
2023/02/17 18:20:00,21.0, 4.3
2023/02/17 18:30:00,20.9, 3.6
2023/02/17 18:40:00,20.8, 3.5
2023/02/17 18:50:00,20.7, 3.6
2023/02/17 19:00:00,20.9, 3.4
2023/02/17 19:10:00,20.8, 3.5
2023/02/17 19:20:00,20.5, 3.5
2023/02/17 19:30:00,20.5, 3.4
2023/02/17 19:40:00,20.4, 3.3
2023/02/17 19:50:00,20.3, 3.3
2023/02/17 20:00:00,20.4, 3.3
2023/02/17 20:10:00,20.4, 3.3
2023/02/17 20:20:00,20.3, 3.3
2023/02/17 20:30:00,20.3, 3.4
2023/02/17 20:40:00,20.4, 3.5
2023/02/17 20:50:00,20.1, 3.9
2023/02/17 21:00:00,20.1, 3.9
2023/02/17 21:10:00,20.0, 4.1
2023/02/17 21:20:00,19.9, 4.5
2023/02/17 21:30:00,19.9, 4.3
2023/02/17 21:40:00,19.8, 3.9
2023/02/17 21:50:00,19.8, 3.9
2023/02/17 22:00:00,19.8, 3.9
2023/02/17 22:10:00,19.7, 3.9
2023/02/17 22:20:00,19.6, 4.3
2023/02/17 22:30:00,19.6, 4.8
2023/02/17 22:40:00,19.6, 4.8
2023/02/17 22:50:00,19.7, 4.7
2023/02/17 23:00:00,19.6, 4.2
2023/02/17 23:10:00,19.6, 4.0
2023/02/17 23:20:00,19.5, 4.5
2023/02/17 23:30:00,19.3, 4.3
2023/02/17 23:40:00,19.1, 4.2
2023/02/17 23:50:00,19.1, 3.8
